This demonstration page uses our WeatherBlox Daily Observations layout. Learn more.

39.29038, -76.61219

Hourly Observations for December 26, 2019

Temp ( °F °C ) Dew Point ( °F °C ) Humidity (%) Winds ( mph kmh ) Pressure ( in mb ) Visibility ( mi km ) Precip ( " mm )
12:54 am 00:54 undefined 35 1.7 30 -1.1 82 82 undefined N/A 30.16 1021 N/A 0 0
1:54 am 01:54 undefined 36 2.2 30 -1.1 79 79 undefined N/A 30.17 1022 N/A 0 0
2:54 am 02:54 undefined 35 1.7 30 -1.1 82 82 undefined N/A 30.18 1022 N/A 0 0
3:54 am 03:54 undefined 35 1.7 29 -1.7 78 78 undefined N/A 30.19 1022 N/A 0 0
4:54 am 04:54 undefined 34 1.1 29 -1.7 82 82 undefined N/A 30.19 1022 N/A 0 0
5:54 am 05:54 undefined 34 1.1 29 -1.7 82 82 undefined N/A 30.2 1023 N/A 0 0
6:54 am 06:54 undefined 34 1.1 29 -1.7 82 82 undefined N/A 30.22 1023 N/A 0 0
7:54 am 07:54 undefined 35 1.7 30 -1.1 82 82 undefined N/A 30.25 1024 N/A 0 0
8:54 am 08:54 undefined 39 3.9 32 0 76 76 undefined N/A 30.3 1026 N/A 0 0
9:54 am 09:54 undefined 43 6.1 35 1.7 74 74 undefined N/A 30.33 1027 N/A 0 0
10:54 am 10:54 undefined 47 8.3 36 2.2 66 66 undefined N/A 30.32 1027 N/A 0 0
11:54 am 11:54 undefined 48 8.9 37 2.8 66 66 undefined N/A 30.29 1026 N/A 0 0
12:54 pm 12:54 undefined 51 10.6 39 3.9 64 64 undefined N/A 30.28 1025 N/A 0 0
1:54 pm 13:54 undefined 50 10 40 4.4 68 68 undefined N/A 30.27 1025 N/A 0 0
2:54 pm 14:54 undefined 50 10 40 4.4 68 68 undefined N/A 30.24 1024 N/A 0 0
3:54 pm 15:54 undefined 48 8.9 41 5 77 77 undefined N/A 30.26 1025 N/A 0 0
4:54 pm 16:54 undefined 47 8.3 40 4.4 77 77 undefined N/A 30.28 1026 N/A 0 0
5:54 pm 17:54 undefined 48 8.9 40 4.4 74 74 undefined N/A 30.3 1026 N/A 0 0
6:54 pm 18:54 undefined 47 8.3 40 4.4 77 77 undefined N/A 30.31 1026 N/A 0 0
7:54 pm 19:54 undefined 47 8.3 40 4.4 77 77 undefined N/A 30.33 1027 N/A 0 0
8:54 pm 20:54 undefined 47 8.3 40 4.4 77 77 undefined N/A 30.34 1028 N/A 0 0
9:54 pm 21:54 undefined 47 8.3 40 4.4 77 77 undefined N/A 30.34 1028 N/A 0 0
10:54 pm 22:54 undefined 46 7.8 40 4.4 79 79 undefined N/A 30.34 1028 N/A 0 0
11:54 pm 23:54 undefined 46 7.8 40 4.4 79 79 undefined N/A 30.33 1027 N/A 0 0

Powered by AerisWeather